This demonstration page uses our WeatherBlox Daily Observations layout. Learn more.

Left ArrowRight Arrow

Hourly Observations for January 24, 2017

Temp ( °F °C ) Dew Point ( °F °C ) Humidity (%) Winds ( mph kmh ) Pressure ( in mb ) Visibility ( mi km ) Precip ( " mm )
12:15 am 00:15 Cloudy with Mist and Fog 32 -0.1 31 -0.6 96 96 E 13 20 29.71 1006 2 3 0.00 0.00
12:35 am 00:35 Cloudy with Mist and Fog 32 0 31 -0.5 96 96 E 14 22 29.71 1006 2 3 0.00 0.00
12:55 am 00:55 Cloudy with Mist and Fog 32 0 31 -0.5 96 96 E 15 24 29.71 1006 2 3 0.00 0.00
1:15 am 01:15 Cloudy with Mist and Fog 32 0 31 -0.5 96 96 E 15 24 29.68 1005 3 4 0.00 0.00
1:35 am 01:35 Cloudy with Mist and Fog 32 0 32 -0.2 99 99 E 12 19 29.68 1005 3 4 0.00 0.00
1:55 am 01:55 Cloudy with Mist and Fog 32 0 32 -0.2 99 99 E 14 22 29.68 1005 3 5 0.00 0.00
2:15 am 02:15 Cloudy with Mist and Fog 32 0 32 -0.2 99 99 ENE 12 19 29.68 1005 2 3 0.00 0.00
2:35 am 02:35 Cloudy with Mist and Fog 32 0 32 -0.2 99 99 E 13 20 29.68 1005 3 4 0.00 0.00
2:55 am 02:55 Cloudy with Mist and Fog 32 0 32 -0.2 99 99 E 15 24 29.68 1005 3 4 0.00 0.00
3:15 am 03:15 Cloudy with Mist and Fog 32 0 32 -0.2 99 99 E 16 26 29.68 1005 3 4 0.00 0.00
3:35 am 03:35 Cloudy with Mist and Fog 32 0 32 -0.2 99 99 E 20 31 29.65 1004 3 5 0.00 0.00
3:55 am 03:55 Cloudy with Mist and Fog 32 0 32 -0.2 99 99 E 16 26 29.65 1004 3 5 0.00 0.00
4:15 am 04:15 Cloudy with Mist and Fog 32 0 31 -0.5 96 96 E 20 31 29.62 1003 4 6 0.00 0.00
4:35 am 04:35 Cloudy with Mist and Fog 32 0 31 -0.6 96 96 E 14 22 29.62 1003 4 6 0.00 0.00
4:55 am 04:55 Cloudy with Mist and Fog 32 0 31 -0.7 95 95 E 12 19 29.62 1003 4 6 0.00 0.00
5:15 am 05:15 Cloudy with Mist and Fog 32 0 31 -0.6 96 96 E 13 20 29.62 1003 4 6 0.00 0.00
5:35 am 05:35 Cloudy with Mist and Fog 32 0 31 -0.6 96 96 E 15 24 29.62 1003 5 8 0.00 0.00
5:55 am 05:55 Cloudy with Mist and Fog 32 0 31 -0.7 95 95 E 16 26 29.62 1003 4 6 0.00 0.00
6:15 am 06:15 Cloudy with Mist and Fog 32 0 31 -0.7 95 95 E 16 26 29.62 1003 4 6 0.00 0.00
6:35 am 06:35 Cloudy with Mist and Fog 32 0 31 -0.8 94 94 E 15 24 29.62 1003 3 5 0.00 0.00
6:55 am 06:55 Cloudy with Mist and Fog 32 0 31 -0.7 95 95 E 13 20 29.62 1003 4 6 0.00 0.00
7:15 am 07:15 Cloudy with Mist and Fog 32 0 31 -0.7 95 95 E 16 26 29.62 1003 4 6 0.00 0.00
7:35 am 07:35 Cloudy with Mist and Fog 32 0 30 -0.9 94 94 E 16 26 29.59 1002 3 5 0.00 0.00
7:55 am 07:55 Cloudy with Mist and Fog 32 -0.1 30 -1 94 94 E 20 31 29.59 1002 3 5 0.00 0.00
8:15 am 08:15 Cloudy with Mist and Fog 32 -0.1 30 -1 94 94 E 16 26 29.62 1003 4 6 0.00 0.00
8:35 am 08:35 Cloudy with Mist and Fog 32 -0.2 30 -1 94 94 E 14 22 29.59 1002 4 6 0.00 0.00
8:55 am 08:55 Cloudy with Mist and Fog 31 -0.3 30 -1.1 94 94 E 13 20 29.62 1003 3 4 0.00 0.00
9:15 am 09:15 Cloudy with Mist and Fog 31 -0.3 30 -1.1 94 94 E 13 20 29.62 1003 3 4 0.00 0.00
9:35 am 09:35 Cloudy with Mist and Fog 31 -0.3 30 -1 95 95 E 13 20 29.62 1003 3 4 0.00 0.00
9:55 am 09:55 Cloudy with Light Snow 31 -0.3 30 -1 95 95 E 14 22 29.62 1003 3 4 0.00 0.00
10:15 am 10:15 Cloudy with Mist and Fog 31 -0.3 30 -1 95 95 E 14 22 29.59 1002 3 4 0.00 0.00
10:35 am 10:35 Cloudy with Light Snow 31 -0.3 30 -1 95 95 ENE 13 20 29.59 1002 2 3 0.00 0.00
10:55 am 10:55 Cloudy with Light Snow 31 -0.5 30 -1.1 96 96 E 17 28 29.59 1002 3 4 0.00 0.00
11:15 am 11:15 Cloudy with Light Snow 31 -0.5 30 -1.1 96 96 ENE 16 26 29.59 1002 1 2 0.00 0.00
11:35 am 11:35 Cloudy with Snow 31 -0.3 30 -1 95 95 ENE 17 28 29.56 1001 0 0 0.01 0.25
11:55 am 11:55 Windy with Snow Likely 32 -0.2 30 -1 94 94 E 20 31 29.56 1001 3 4 0.02 0.51
12:15 pm 12:15 Cloudy with Light Snow 31 -0.5 30 -1.2 95 95 E 8 13 29.59 1002 4 6 0.00 0.00
12:35 pm 12:35 Cloudy with Light Snow 31 -0.5 30 -1.3 94 94 ENE 12 19 29.59 1002 2 3 0.01 0.25
12:55 pm 12:55 Cloudy with Light Snow 31 -0.5 30 -1.2 95 95 ENE 7 11 29.59 1002 1 2 0.02 0.51
1:15 pm 13:15 Cloudy with Light Snow 32 -0.2 30 -1 94 94 NE 9 15 29.56 1001 2 3 0.00 0.00
1:35 pm 13:35 Cloudy with Mist and Fog 31 -0.4 30 -1.3 94 94 ENE 6 9 29.56 1001 5 8 0.00 0.00
1:55 pm 13:55 Cloudy 32 -0.2 30 -1.2 93 93 NE 8 13 29.56 1001 7 11 0.00 0.00
2:15 pm 14:15 Cloudy 32 -0.1 30 -1.2 92 92 NNE 6 9 29.56 1001 7 11 0.00 0.00
2:35 pm 14:35 Cloudy 32 -0.1 30 -1.3 92 92 N 8 13 29.56 1001 10 16 0.00 0.00
2:55 pm 14:55 Cloudy 32 0 30 -1.2 92 92 N 7 11 29.56 1001 10 16 0.00 0.00
3:15 pm 15:15 Cloudy 32 -0.2 29 -1.5 91 91 N 9 15 29.56 1001 10 16 0.00 0.00
3:35 pm 15:35 Cloudy 32 -0.1 29 -1.5 90 90 N 9 15 29.56 1001 10 16 0.00 0.00
3:55 pm 15:55 Cloudy 32 -0.1 29 -1.5 90 90 N 9 15 29.59 1002 10 16 0.00 0.00
4:15 pm 16:15 Cloudy 31 -0.3 29 -1.9 89 89 N 9 15 29.59 1002 10 16 0.00 0.00
4:35 pm 16:35 Cloudy 31 -0.3 29 -1.7 90 90 N 6 9 29.59 1002 10 16 0.00 0.00
4:55 pm 16:55 Cloudy 31 -0.3 29 -1.7 90 90 N 7 11 29.62 1003 10 16 0.00 0.00
5:15 pm 17:15 Cloudy 31 -0.5 29 -1.8 91 91 N 6 9 29.62 1003 10 16 0.00 0.00
5:35 pm 17:35 Cloudy 31 -0.5 28 -2 90 90 N 3 6 29.65 1004 10 16 0.00 0.00
5:55 pm 17:55 Cloudy 31 -0.5 28 -2 90 90 NNW 3 6 29.65 1004 10 16 0.00 0.00
6:15 pm 18:15 Cloudy 31 -0.5 28 -2 90 90 NNW 8 13 29.65 1004 10 16 0.00 0.00
6:35 pm 18:35 Cloudy 31 -0.6 28 -2 90 90 NNW 7 11 29.65 1004 10 16 0.00 0.00
6:55 pm 18:55 Cloudy 31 -0.8 28 -2.2 90 90 NW 7 11 29.68 1005 10 16 0.00 0.00
7:15 pm 19:15 Cloudy 31 -0.8 28 -2.3 90 90 NW 7 11 29.68 1005 10 16 0.00 0.00
7:35 pm 19:35 Cloudy 31 -0.7 28 -2.1 90 90 NW 9 15 29.68 1005 10 16 0.00 0.00
7:55 pm 19:55 Cloudy 30 -1 28 -2.5 90 90 NW 8 13 29.74 1007 10 16 0.00 0.00
8:15 pm 20:15 Cloudy 30 -1 28 -2.5 90 90 NW 8 13 29.74 1007 10 16 0.00 0.00
8:35 pm 20:35 Cloudy 30 -1 28 -2.3 91 91 NW 10 17 29.74 1007 10 16 0.00 0.00
8:55 pm 20:55 Cloudy 30 -1.2 27 -2.7 90 90 NNW 13 20 29.74 1007 10 16 0.00 0.00
9:15 pm 21:15 Cloudy 29 -1.5 28 -2.5 93 93 NNW 12 19 29.74 1007 7 11 0.00 0.00
9:35 pm 21:35 Cloudy 29 -1.4 28 -2.5 92 92 NNW 16 26 29.77 1008 10 16 0.00 0.00
9:55 pm 21:55 Cloudy 29 -1.5 27 -2.6 92 92 NNW 15 24 29.77 1008 7 11 0.00 0.00
10:15 pm 22:15 Cloudy 29 -1.5 27 -2.7 92 92 NNW 15 24 29.77 1008 10 16 0.00 0.00
10:35 pm 22:35 Cloudy 29 -1.5 27 -2.9 90 90 NNW 16 26 29.77 1008 10 16 0.00 0.00
10:55 pm 22:55 Cloudy 29 -1.4 26 -3.5 86 86 NNW 16 26 29.80 1009 10 16 0.00 0.00
11:15 pm 23:15 Cloudy 28 -2.5 24 -4.7 85 85 NW 21 33 29.80 1009 10 16 0.00 0.00
11:35 pm 23:35 Cloudy 27 -3 23 -5.2 85 85 NW 25 41 29.85 1011 10 16 0.00 0.00
11:55 pm 23:55 Cloudy 26 -3.4 22 -5.5 86 86 NW 22 35 29.85 1011 10 16 0.00 0.00

Powered by AerisWeather